DLH490 EDDF-KSEA

Flight info

Callsign DLH490
Flight time N/A
Altitude 36000
Route MARUN8M/25C MARUN Y152 ARPEG Z850 ABILU DCT ATPAQ DCT OMIMA DCT IPTON/M080F360 DCT 69N010W 73N020W 76N040W 77N060W DCT DOGGY/N0456F360 DCT 76N080W 7430N09000W 7130N10000W DCT YCB DCT 66N110W 61N115W DCT YQU DCT YDC DCT JAKSN GLASR3
Aircraft A343/H-SDE2E3FGHIJ4J5M1RWXY/LB1D1

Departure

Time 2026-05-04 07:09
Airport Frankfurt Main Airport (EDDF)

Arrival

Time N/A
Airport Seattle–Tacoma International Airport (KSEA)
Time Latitude Longitude Altitude Speed Heading
2026-05-04 06:41 50.04644 8.55943 360 ft 0 kts 340°
2026-05-04 06:52 50.04627 8.55953 366 ft 4 kts 341°
2026-05-04 06:52 50.04601 8.55966 366 ft 4 kts 341°
2026-05-04 06:52 50.04580 8.55979 364 ft 4 kts 320°
2026-05-04 06:53 50.04568 8.56010 362 ft 4 kts 268°
2026-05-04 06:53 50.04573 8.56050 368 ft 4 kts 248°
2026-05-04 06:53 50.04581 8.56079 367 ft 0 kts 250°
2026-05-04 06:57 50.04223 8.55876 362 ft 11 kts 249°
2026-05-04 06:58 50.04198 8.55762 361 ft 11 kts 251°
2026-05-04 06:58 50.04169 8.55642 361 ft 13 kts 249°
2026-05-04 06:58 50.04136 8.55505 361 ft 14 kts 248°
2026-05-04 06:58 50.04101 8.55361 361 ft 14 kts 249°
2026-05-04 06:59 50.04067 8.55222 364 ft 14 kts 250°
2026-05-04 06:59 50.04034 8.55078 365 ft 15 kts 250°
2026-05-04 06:59 50.03997 8.54926 362 ft 16 kts 249°
2026-05-04 06:59 50.03956 8.54757 359 ft 18 kts 249°
2026-05-04 07:01 50.03596 8.53378 351 ft 16 kts 249°
2026-05-04 07:01 50.03556 8.53214 348 ft 17 kts 249°
2026-05-04 07:02 50.03512 8.53039 352 ft 18 kts 248°
2026-05-04 07:02 50.03466 8.52857 336 ft 18 kts 248°
2026-05-04 07:02 50.03448 8.52786 335 ft 0 kts 248°
2026-05-04 07:04 50.03439 8.52754 336 ft 10 kts 248°
2026-05-04 07:04 50.03396 8.52607 335 ft 12 kts 218°
2026-05-04 07:05 50.03371 8.52598 335 ft 0 kts 182°
2026-05-04 07:08 50.00430 8.52626 433 ft 166 kts 180°
2026-05-04 07:09 49.99342 8.52670 1011 ft 156 kts 179°
2026-05-04 07:09 49.98209 8.52569 1293 ft 169 kts 198°
2026-05-04 07:09 49.97176 8.51618 1477 ft 185 kts 222°
2026-05-04 07:09 49.96196 8.50144 1717 ft 210 kts 225°
2026-05-04 07:10 49.95115 8.48450 2090 ft 228 kts 225°
2026-05-04 07:10 49.93964 8.46687 2730 ft 236 kts 224°
2026-05-04 07:12 49.87732 8.31606 7781 ft 268 kts 289°
2026-05-04 07:12 49.88618 8.29045 8495 ft 272 kts 299°
2026-05-04 07:12 49.89661 8.26572 9204 ft 275 kts 300°
2026-05-04 07:12 49.90719 8.24086 9926 ft 277 kts 300°
2026-05-04 07:13 49.91832 8.21590 10417 ft 288 kts 306°
2026-05-04 07:13 49.93358 8.19410 10703 ft 310 kts 324°
2026-05-04 07:13 49.95411 8.18094 10947 ft 331 kts 344°
2026-05-04 07:14 50.05240 8.15882 12493 ft 371 kts 351°
2026-05-04 07:14 50.07786 8.15474 13051 ft 375 kts 352°